Location: Goettingen
(51.5300°N, 9.9433°E)
Time: 16:52:58
(UTC+02:00)

ISS - Visible Passes

Search period start: 23 June 2021 00:00
Search period end: 03 July 2021 00:00
Orbit: 417 x 422 km, 51.6° (Epoch: 22 June)

Date Brightness Start Highest point End Pass type
(mag) Time Alt. Az. Time Alt. Az. Time Alt. Az.
29 Jun -1.4 04:16:38 10° S 04:18:29 14° SE 04:20:19 10° ESE visible
01 Jul -2.4 04:17:06 10° SSW 04:20:02 28° SSE 04:22:58 10° E visible
02 Jul -2.0 03:30:56 14° S 03:32:45 20° SE 03:35:18 10° E visible
